St Augustine, FL 40NM ENE of St Augustine, FL (41012)

Conditions for Saturday

Daily
Weekly
Monthly
Marine Data Graph

Marine & Boating Location Search

Enter a coastal zip code for marine weather.

General Information

Location: 30.042 North -80.534 West
Buoy Type: 3-meter discus buoy
Buoy Hull: 3DV13
Payload: AMPS payload
Owned by: NDBC
Windspeed: Measured by obtained from anemometer
Sea Surface: Measured by Intake
Note: See the notice on loss of funding from the Coastal Storms Program for this station:
http://www.nws.noaa.gov/om/notification/scn14-06buoy_staugustine_fl.htm
Station 41012 has been disestablished on 02/19/2014.


Weather and Wave Data

Time Temp Humidity Wind Dominant Wave Wind Wave Wave Swell Pressure
  Air
(°F)
Water
(°F)
  Dir Speed
(kts)
Speed
(mph)
Period
(sec)
Height
(ft)
Range
(ft)
Period
(sec)
Height
(ft)
Range
(ft)
Period
(sec)
Height
(ft)
Range
(ft)
Atmo.
(in)
Tend.
(in)
20:50 67 71 40 East 7.8 8.9 5 1.64 exactly 1.6 3 1.64 0.82 - 2.46 5 1.64 0.82 - 2.46 30.04 +0.04
21:50 67 70 44 East 7.8 8.9 5 1.64 exactly 1.6 3 1.64 0.82 - 2.46 5 1.64 0.82 - 2.46 30.04 +0.04
22:50 68 70 47 East 11.7 13.4 6 1.97 exactly 2.0 3 1.64 0.82 - 2.46 6 1.64 0.82 - 2.46 30.04 +0.03
23:50 68 70 48 SE 11.7 13.4 5 1.97 exactly 2.0 5 1.64 0.82 - 2.46 6 1.64 0.82 - 2.46 30.02 -0.02
00:50 68 70 57 SE 13.6 15.7 3 2.30 exactly 2.3 3 1.64 0.82 - 2.46 6 1.64 0.82 - 2.46 30.01 -0.03
01:50 70 70 47 SSE 13.6 15.7 3 2.30 exactly 2.3 3 1.64 0.82 - 2.46 9 1.64 0.82 - 2.46 29.99 -0.05
02:50 68 70 69 South 9.7 11.2 3 2.30 exactly 2.3 3 1.64 0.82 - 2.46 6 1.64 0.82 - 2.46 29.98 -0.04
03:50 69 70 64 SSE 9.7 11.2 3 2.30 exactly 2.3 3 1.64 0.82 - 2.46 6 1.64 0.82 - 2.46 29.96 -0.04
04:50 69 70 63 SSE 5.8 6.7 10 1.97 exactly 2.0 4 1.64 0.82 - 2.46 10 1.64 0.82 - 2.46 29.95 -0.04
05:50 69 70 65 SSE 5.8 6.7 9 2.30 exactly 2.3 4 1.64 0.82 - 2.46 9 1.64 0.82 - 2.46 29.95 -0.03
06:50 70 70 63 SSE 7.8 8.9 10 2.30 exactly 2.3 3 1.64 0.82 - 2.46 10 1.64 0.82 - 2.46 29.96 -
07:50 70 70 69 SSE 9.7 11.2 9 1.97 exactly 2.0 4 1.64 0.82 - 2.46 9 1.64 0.82 - 2.46 29.95 -
08:50 70 70 75 SSE 11.7 13.4 9 2.30 exactly 2.3 4 1.64 0.82 - 2.46 9 1.64 0.82 - 2.46 29.94 -0.01
09:50 71 70 76 SSE 9.7 11.2 6 2.30 exactly 2.3 4 1.64 0.82 - 2.46 6 1.64 0.82 - 2.46 29.94 -0.02
10:50 71 70 76 South 13.6 15.7 8 2.30 exactly 2.3 5 1.64 0.82 - 2.46 8 1.64 0.82 - 2.46 29.94 -0.02
11:50 70 70 81 South 13.6 15.7 8 2.62 exactly 2.6 5 1.64 0.82 - 2.46 8 1.64 0.82 - 2.46 29.93 -0.01
12:50 69 70 83 South 11.7 13.4 4 2.95 exactly 3.0 4 1.64 0.82 - 2.46 8 1.64 0.82 - 2.46 29.91 -0.03
13:50 69 70 86 SSW 9.7 11.2 5 2.95 exactly 3.0 4 1.64 0.82 - 2.46 5 1.64 0.82 - 2.46 29.89 -0.04
14:50 69 70 85 - 0.0 0.0 5 2.62 exactly 2.6 4 1.64 0.82 - 2.46 5 1.64 0.82 - 2.46 29.88 -0.05
15:50 68 70 86 NNE 1.9 2.2 5 2.95 exactly 3.0 4 1.64 0.82 - 2.46 5 3.28 2.46 - 4.10 29.88 -0.02
16:50 69 70 76 ESE 3.9 4.5 4 2.62 exactly 2.6 4 1.64 0.82 - 2.46 4 1.64 0.82 - 2.46 29.83 -0.07
17:50 68 70 77 West 1.9 2.2 5 2.62 exactly 2.6 4 1.64 0.82 - 2.46 5 1.64 0.82 - 2.46 29.84 -0.04
18:50 68 70 76 NNW 3.9 4.5 8 1.97 exactly 2.0 4 1.64 0.82 - 2.46 8 1.64 0.82 - 2.46 29.86 -0.03
19:50 68 70 81 North 13.6 15.7 9 1.97 exactly 2.0 5 1.64 0.82 - 2.46 9 1.64 0.82 - 2.46 29.88 +0.05
20:50 67 70 78 North 13.6 15.7 9 2.30 exactly 2.3 5 1.64 0.82 - 2.46 9 1.64 0.82 - 2.46 29.87 +0.03
21:50 69 70 71 North 13.6 15.7 8 2.30 exactly 2.3 3 1.64 0.82 - 2.46 8 1.64 0.82 - 2.46 29.88 +0.02
22:50 67 70 79 North 17.5 20.1 7 3.28 exactly 3.3 6 3.28 2.46 - 4.10 7 1.64 0.82 - 2.46 29.84 -0.04
23:50 69 70 71 NE 5.8 6.7 7 4.27 exactly 4.3 4 1.64 0.82 - 2.46 7 3.28 2.46 - 4.10 29.88 +0.01
00:50 69 70 76 SE 11.7 13.4 7 3.94 exactly 3.9 5 1.64 0.82 - 2.46 7 3.28 2.46 - 4.10 29.83 -0.05
01:50 69 70 75 SE 15.6 17.9 7 3.94 exactly 3.9 7 3.28 2.46 - 4.10 15 1.64 0.82 - 2.46 29.80 -0.04
03:50 70 70 78 SSE 19.4 22.4 7 3.28 exactly 3.3 5 3.28 2.46 - 4.10 7 1.64 0.82 - 2.46 29.73 -0.09

Detailed Wave Spectra

Time Water Depth Wave Height Spectral Peak Period Average Wave Period Sampling Interval Wave Record
20:00 125 ft 2.00 ft 5.0 sec 3.7 sec 0.6 sec 2400 sec
21:00 125 ft 1.74 ft 5.0 sec 3.9 sec 0.6 sec 2400 sec
22:00 125 ft 1.80 ft 4.5 sec 3.8 sec 0.6 sec 2400 sec
23:00 125 ft 2.00 ft 5.6 sec 3.8 sec 0.6 sec 2400 sec
00:00 125 ft 2.00 ft 5.3 sec 3.9 sec 0.6 sec 2400 sec
01:00 125 ft 2.20 ft 3.0 sec 3.6 sec 0.6 sec 2400 sec
02:00 125 ft 2.33 ft 3.2 sec 3.5 sec 0.6 sec 2400 sec
03:00 125 ft 2.23 ft 3.2 sec 3.6 sec 0.6 sec 2400 sec
04:00 125 ft 2.13 ft 3.4 sec 3.7 sec 0.6 sec 2400 sec
05:00 125 ft 2.03 ft 10.0 sec 3.9 sec 0.6 sec 2400 sec
06:00 125 ft 2.20 ft 9.1 sec 4.4 sec 0.6 sec 2400 sec
07:00 125 ft 2.30 ft 10.0 sec 4.5 sec 0.6 sec 2400 sec
08:00 125 ft 2.13 ft 9.1 sec 4.8 sec 0.6 sec 2400 sec
09:00 125 ft 2.30 ft 9.1 sec 4.7 sec 0.6 sec 2400 sec
10:00 125 ft 2.43 ft 6.3 sec 4.3 sec 0.6 sec 2400 sec
11:00 125 ft 2.40 ft 8.3 sec 4.4 sec 0.6 sec 2400 sec
12:00 125 ft 2.66 ft 7.7 sec 4.2 sec 0.6 sec 2400 sec
13:00 125 ft 2.89 ft 4.3 sec 4.1 sec 0.6 sec 2400 sec
14:00 125 ft 2.92 ft 4.5 sec 4.3 sec 0.6 sec 2400 sec
15:00 125 ft 2.79 ft 4.5 sec 4.4 sec 0.6 sec 2400 sec
16:00 125 ft 3.02 ft 4.8 sec 4.6 sec 0.6 sec 2400 sec
17:00 125 ft 2.66 ft 4.3 sec 4.7 sec 0.6 sec 2400 sec
18:00 125 ft 2.53 ft 4.5 sec 4.9 sec 0.6 sec 2400 sec
19:00 125 ft 2.13 ft 8.3 sec 5.3 sec 0.6 sec 2400 sec
20:00 125 ft 2.07 ft 9.1 sec 5.4 sec 0.6 sec 2400 sec
21:00 125 ft 2.17 ft 9.1 sec 3.9 sec 0.6 sec 2400 sec
22:00 125 ft 2.30 ft 8.3 sec 3.9 sec 0.6 sec 2400 sec
23:00 125 ft 3.25 ft 7.1 sec 4.4 sec 0.6 sec 2400 sec
01:00 125 ft 3.84 ft 6.7 sec 5.3 sec 0.6 sec 2400 sec
02:00 125 ft 3.84 ft 7.1 sec 5.2 sec 0.6 sec 2400 sec
03:00 125 ft 3.41 ft 7.1 sec 4.5 sec 0.6 sec 2400 sec